TimeMST,TemperatureF,Dew PointF,Humidity,Sea Level PressureIn,VisibilityMPH,Wind Direction,Wind SpeedMPH,Gust SpeedMPH,PrecipitationIn,Events,Conditions,WindDirDegrees,DateUTC
12:15 AM,-0.4,-4.0,85,30.07,10.0,West,8.1,-,N/A,,Clear,280,2013-12-13 07:15:00
12:35 AM,1.4,-2.2,85,30.06,10.0,West,9.2,-,N/A,,Clear,280,2013-12-13 07:35:00
12:55 AM,-0.4,-4.0,85,30.06,10.0,West,9.2,-,N/A,,Clear,280,2013-12-13 07:55:00
1:15 AM,-0.4,-4.0,85,30.05,10.0,West,5.8,-,N/A,,Clear,280,2013-12-13 08:15:00
1:35 AM,1.4,-2.2,85,30.04,10.0,West,6.9,-,N/A,,Clear,270,2013-12-13 08:35:00
1:55 AM,-0.4,-4.0,85,30.03,10.0,WNW,6.9,-,N/A,,Clear,300,2013-12-13 08:55:00
2:15 AM,1.4,-2.2,85,30.03,10.0,WNW,8.1,-,N/A,,Scattered Clouds,300,2013-12-13 09:15:00
2:35 AM,3.2,1.4,92,30.03,10.0,WNW,9.2,-,N/A,,Scattered Clouds,300,2013-12-13 09:35:00
2:55 AM,3.2,-0.4,85,30.03,10.0,West,6.9,-,N/A,,Clear,280,2013-12-13 09:55:00
3:15 AM,3.2,-0.4,85,30.03,10.0,NW,8.1,-,N/A,,Clear,310,2013-12-13 10:15:00
3:35 AM,3.2,1.4,92,30.02,10.0,West,5.8,-,N/A,,Clear,260,2013-12-13 10:35:00
3:55 AM,5.0,1.4,85,30.01,10.0,West,5.8,-,N/A,,Clear,270,2013-12-13 10:55:00
4:15 AM,8.6,5.0,85,30.01,10.0,West,9.2,-,N/A,,Clear,270,2013-12-13 11:15:00
4:35 AM,10.4,6.8,85,30.01,10.0,WNW,10.4,-,N/A,,Clear,300,2013-12-13 11:35:00
4:55 AM,10.4,5.0,79,30.00,10.0,WNW,8.1,-,N/A,,Clear,300,2013-12-13 11:55:00
5:15 AM,10.4,6.8,85,30.00,10.0,WNW,10.4,-,N/A,,Clear,300,2013-12-13 12:15:00
5:35 AM,10.4,6.8,85,29.99,10.0,NW,8.1,-,N/A,,Clear,310,2013-12-13 12:35:00
5:55 AM,12.2,8.6,85,29.99,10.0,WNW,9.2,-,N/A,,Clear,300,2013-12-13 12:55:00
6:15 AM,14.0,8.6,79,30.00,10.0,WNW,9.2,-,N/A,,Clear,300,2013-12-13 13:15:00
6:35 AM,12.2,6.8,79,30.00,10.0,NW,8.1,-,N/A,,Clear,320,2013-12-13 13:35:00
6:55 AM,12.2,8.6,85,30.00,10.0,WNW,3.5,-,N/A,,Clear,300,2013-12-13 13:55:00
7:15 AM,15.8,8.6,73,30.00,10.0,WNW,3.5,-,N/A,,Clear,300,2013-12-13 14:15:00
7:35 AM,15.8,8.6,73,30.00,10.0,West,3.5,-,N/A,,Clear,280,2013-12-13 14:35:00
7:55 AM,17.6,10.4,73,30.00,10.0,North,3.5,-,N/A,,Clear,360,2013-12-13 14:55:00
8:15 AM,15.8,10.4,79,30.01,10.0,North,3.5,-,N/A,,Clear,10,2013-12-13 15:15:00
8:35 AM,15.8,10.4,79,30.01,10.0,Calm,Calm,-,N/A,,Clear,0,2013-12-13 15:35:00
8:55 AM,21.2,12.2,68,30.00,10.0,WNW,11.5,-,N/A,,Clear,300,2013-12-13 15:55:00
9:15 AM,21.2,12.2,68,30.00,10.0,West,16.1,19.6,N/A,,Clear,280,2013-12-13 16:15:00
9:35 AM,23.0,12.2,63,30.00,10.0,West,11.5,19.6,N/A,,Clear,280,2013-12-13 16:35:00
9:55 AM,23.0,12.2,63,30.01,10.0,WNW,11.5,-,N/A,,Clear,300,2013-12-13 16:55:00
10:15 AM,23.0,14.0,68,30.01,10.0,WNW,13.8,-,N/A,,Clear,300,2013-12-13 17:15:00
10:35 AM,23.0,14.0,68,30.01,10.0,WNW,13.8,-,N/A,,Clear,300,2013-12-13 17:35:00
10:55 AM,23.0,14.0,68,30.03,10.0,WNW,15.0,24.2,N/A,,Clear,300,2013-12-13 17:55:00
11:15 AM,24.8,14.0,64,30.02,10.0,WNW,18.4,23.0,N/A,,Clear,300,2013-12-13 18:15:00
11:35 AM,24.8,14.0,64,30.02,10.0,WNW,19.6,25.3,N/A,,Mostly Cloudy,300,2013-12-13 18:35:00
11:55 AM,26.6,15.8,64,30.01,10.0,WNW,23.0,28.8,N/A,,Overcast,300,2013-12-13 18:55:00
12:15 PM,26.6,15.8,64,30.01,10.0,WNW,23.0,29.9,N/A,,Mostly Cloudy,290,2013-12-13 19:15:00
12:35 PM,26.6,17.6,69,30.01,10.0,WNW,24.2,32.2,N/A,,Scattered Clouds,290,2013-12-13 19:35:00
12:55 PM,28.4,17.6,64,30.00,10.0,WNW,19.6,31.1,N/A,,Clear,290,2013-12-13 19:55:00
1:15 PM,28.4,17.6,64,30.01,10.0,WNW,25.3,32.2,N/A,,Scattered Clouds,290,2013-12-13 20:15:00
1:35 PM,28.4,15.8,59,30.01,10.0,WNW,24.2,34.5,N/A,,Mostly Cloudy,290,2013-12-13 20:35:00
1:55 PM,28.4,15.8,59,30.02,10.0,WNW,25.3,33.4,N/A,,Scattered Clouds,290,2013-12-13 20:55:00
2:15 PM,28.4,17.6,64,30.02,10.0,WNW,26.5,33.4,N/A,,Scattered Clouds,290,2013-12-13 21:15:00
2:35 PM,28.4,17.6,64,30.03,10.0,WNW,24.2,29.9,N/A,,Clear,290,2013-12-13 21:35:00
2:55 PM,26.6,17.6,69,30.04,10.0,WNW,24.2,31.1,N/A,,Clear,290,2013-12-13 21:55:00
3:04 PM,26.6,15.8,64,30.05,10.0,WNW,24.2,29.9,N/A,,Clear,300,2013-12-13 22:04:00
3:15 PM,26.6,15.8,64,30.05,10.0,WNW,21.9,32.2,N/A,,Clear,290,2013-12-13 22:15:00
3:24 PM,24.8,15.8,69,30.05,10.0,WNW,24.2,33.4,N/A,,Clear,300,2013-12-13 22:24:00
3:35 PM,26.6,15.8,64,30.05,10.0,WNW,21.9,29.9,N/A,,Clear,290,2013-12-13 22:35:00
3:55 PM,24.8,15.8,69,30.05,10.0,WNW,24.2,29.9,N/A,,Clear,300,2013-12-13 22:55:00
4:15 PM,23.0,15.8,74,30.06,10.0,WNW,21.9,-,N/A,,Clear,300,2013-12-13 23:15:00
4:35 PM,23.0,15.8,74,30.09,10.0,WNW,23.0,-,N/A,,Clear,300,2013-12-13 23:35:00
4:55 PM,23.0,15.8,74,30.09,10.0,WNW,21.9,26.5,N/A,,Clear,290,2013-12-13 23:55:00
5:15 PM,23.0,14.0,68,30.08,10.0,WNW,24.2,29.9,N/A,,Clear,290,2013-12-14 00:15:00
5:35 PM,21.2,14.0,74,30.09,10.0,WNW,28.8,-,N/A,,Clear,290,2013-12-14 00:35:00
5:55 PM,21.2,14.0,74,30.10,10.0,WNW,26.5,33.4,N/A,,Clear,290,2013-12-14 00:55:00
6:15 PM,21.2,14.0,74,30.11,10.0,WNW,23.0,-,N/A,,Scattered Clouds,300,2013-12-14 01:15:00
6:35 PM,21.2,14.0,74,30.12,10.0,WNW,24.2,28.8,N/A,,Clear,300,2013-12-14 01:35:00
6:55 PM,21.2,14.0,74,30.13,10.0,WNW,24.2,-,N/A,,Clear,300,2013-12-14 01:55:00
7:15 PM,21.2,14.0,74,30.14,10.0,WNW,21.9,28.8,N/A,,Clear,300,2013-12-14 02:15:00
7:35 PM,21.2,14.0,74,30.14,10.0,WNW,23.0,-,N/A,,Clear,300,2013-12-14 02:35:00
7:55 PM,21.2,14.0,74,30.16,10.0,NW,21.9,-,N/A,,Clear,310,2013-12-14 02:55:00
8:15 PM,21.2,14.0,74,30.16,10.0,NW,19.6,-,N/A,,Scattered Clouds,310,2013-12-14 03:15:00
8:35 PM,19.4,12.2,74,30.16,10.0,NW,20.7,-,N/A,,Scattered Clouds,310,2013-12-14 03:35:00
8:55 PM,21.2,14.0,74,30.17,10.0,WNW,24.2,-,N/A,,Scattered Clouds,300,2013-12-14 03:55:00
9:15 PM,21.2,14.0,74,30.17,10.0,WNW,23.0,-,N/A,,Clear,300,2013-12-14 04:15:00
9:35 PM,19.4,14.0,80,30.16,10.0,NW,25.3,-,N/A,,Clear,310,2013-12-14 04:35:00
9:55 PM,21.2,14.0,74,30.17,10.0,NW,24.2,-,N/A,,Clear,310,2013-12-14 04:55:00
10:15 PM,23.0,14.0,68,30.18,10.0,NW,25.3,-,N/A,,Clear,310,2013-12-14 05:15:00
10:35 PM,23.0,14.0,68,30.19,10.0,NW,26.5,31.1,N/A,,Clear,310,2013-12-14 05:35:00
10:55 PM,21.2,14.0,74,30.19,10.0,NNW,15.0,-,N/A,,Clear,330,2013-12-14 05:55:00
11:15 PM,23.0,14.0,68,30.21,10.0,WNW,18.4,-,N/A,,Clear,300,2013-12-14 06:15:00
11:35 PM,21.2,14.0,74,30.22,10.0,NW,12.7,-,N/A,,Clear,320,2013-12-14 06:35:00
11:55 PM,23.0,14.0,68,30.22,10.0,WNW,17.3,24.2,N/A,,Clear,290,2013-12-14 06:55:00